This is the latest recevied weather packets stored in our database for station/object KD4WXI. If no packets are shown the sender has not sent any weather packets the latest 10 day(s).
| Time | Temp. | Humidity | Pressure | Rain* | Wind** | Luminosity | Snow |
|---|---|---|---|---|---|---|---|
| 1777941975 | 17.22° C | 53% | 1014.6 hPa | 0 mm | - | 0 W/m² | - |
| 1777941672 | 17.78° C | 53% | 1014.6 hPa | 0 mm | - | 0 W/m² | - |
| 1777941369 | 17.78° C | 52% | 1014.3 hPa | 0 mm | - | 0 W/m² | - |
| 1777941066 | 17.78° C | 54% | 1014.1 hPa | 0 mm | - | 0 W/m² | - |
| 1777940762 | 18.33° C | 50% | 1014.1 hPa | 0 mm | - | 0 W/m² | - |
| 1777940461 | 18.89° C | 46% | 1014.8 hPa | 0 mm | - | 1 W/m² | - |
| 1777940157 | 19.44° C | 44% | 1014.3 hPa | 0 mm | - | 1 W/m² | - |
| 1777939855 | 19.44° C | 43% | 1014.3 hPa | 0 mm | - | 2 W/m² | - |
| 1777939552 | 20° C | 42% | 1014.5 hPa | 0 mm | - | 3 W/m² | - |
| 1777939249 | 20° C | 44% | 1014.2 hPa | 0 mm | - | 5 W/m² | - |
| 1777938946 | 20.56° C | 41% | 1014 hPa | 0 mm | - | 7 W/m² | - |
| 1777938643 | 21.11° C | 39% | 1014.3 hPa | 0 mm | - | 9 W/m² | - |
| 1777938340 | 21.11° C | 41% | 1014.1 hPa | 0 mm | - | 11 W/m² | - |
| 1777938037 | 21.11° C | 41% | 1014.2 hPa | 0 mm | - | 13 W/m² | - |
| 1777937732 | 21.67° C | 40% | 1014 hPa | 0 mm | - | 15 W/m² | - |
| 1777937429 | 21.67° C | 42% | 1013.9 hPa | 0 mm | - | 17 W/m² | - |
| 1777937126 | 21.67° C | 41% | 1013.8 hPa | 0 mm | - | 19 W/m² | - |
| 1777936824 | 21.67° C | 38% | 1014 hPa | 0 mm | - | 20 W/m² | - |
| 1777936520 | 21.67° C | 40% | 1013.7 hPa | 0 mm | - | 22 W/m² | - |
| 1777936216 | 22.22° C | 39% | 1013.7 hPa | 0 mm | - | 23 W/m² | - |
| 1777935913 | 22.22° C | 37% | 1013.7 hPa | 0 mm | - | 24 W/m² | - |
| 1777935612 | 22.78° C | 38% | 1013.8 hPa | 0 mm | - | 25 W/m² | - |
| 1777935308 | 23.33° C | 36% | 1013.7 hPa | 0 mm | - | 26 W/m² | - |
| 1777935005 | 23.33° C | 33% | 1013.7 hPa | 0 mm | - | 27 W/m² | - |
| 1777934702 | 23.33° C | 34% | 1013.9 hPa | 0 mm | - | 27 W/m² | - |
* Rain latest hour (hover to see other rain measurements)
** Current wind speed in m/s (hover to see current wind gust speed)